Location: Putah Creek Observatory
(38.7021°N, 122.3865°W)
Time: 14:38:36
(UTC-07:00)

SL-16 R/B - Pass Details

Date: 27 May 2018
Orbit: 839 x 850 km, 71.0° (Epoch: 20 August)

Event Time Altitude Azimuth Distance (km) Brightness Sun altitude
Rises 23:33:08 0° 346° (NNW) 3,407 6.6 -26.0°
Reaches altitude 10° 23:35:55 10° 358° (N) 2,471 5.5 -26.2°
Maximum altitude 23:40:50 30° 58° (ENE) 1,489 3.5 -26.5°
Enters shadow 23:41:50 28° 77° (ENE) 1,542 3.4 -26.6°
